Location: Lhota
(50.0887°N, 14.0116°E)
Time: 00:27:19
(UTC+00:00)

Cosmos 1538 Rocket - Pass Details

Date: 19 May 2025
Orbit: 749 x 788 km, 74.0° (Epoch: 15 June)

Event Time Altitude Azimuth Distance (km) Brightness Sun altitude
Exits shadow 22:50:40 31° 220° (SW) 1,296 4.8 -19.9°
Maximum altitude 22:53:07 69° 296° (WNW) 805 4.1 -19.9°
Drops below altitude 10° 22:58:16 10° 20° (NNE) 2,281 7.5 -19.9°
Sets 23:00:39 0° 23° (NNE) 3,209 8.4 -19.9°
